Dansville, NY

6:38 PM EDT on April 25, 2017 (GMT -0400)
Dansville Municipal

Weather History for KDSV - December, 2013

Change the Weather History Date:

Thursday, December 5, 2013

  Actual Average Record
Temperature  
Mean Temperature 53 °F -  
Max Temperature 64 °F 39 °F 71 °F (2001)
Min Temperature 42 °F 23 °F 3 °F (1966)
Degree Days  
Heating Degree Days 12    
Growing Degree Days 3 (Base 50)    
Moisture  
Dew Point 44 °F    
Average Humidity 73    
Maximum Humidity 82    
Minimum Humidity 61    
Precipitation  
Precipitation 0.01 in - - ()
Sea Level Pressure  
Sea Level Pressure 29.90 in    
Wind  
Wind Speed 10 mph (ESE)    
Max Wind Speed 17 mph    
Max Gust Speed 18 mph    
Visibility 8 miles    
Events Rain    
Averages and records for this station are not official NWS values.
T = Trace of Precipitation, MM = Missing Value Source: NWS Daily Summary

Daily Weather History Graph

Daily Weather History Graph

Search for Another Location

Airport or City:

Trip Planner

Search our weather history database for the weather conditions in past years. The results will help you decide how hot, cold, wet, or windy it might be!

Date:

Astronomy

Dec. 05, 2013 Rise Set
Actual Time 7:25 AM EST 4:37 PM EST
Civil Twilight 6:53 AM EST 5:09 PM EST
Nautical Twilight 6:18 AM EST 5:44 PM EST
Astronomical Twilight 5:44 AM EST 6:18 PM EST
Moon 9:42 AM EST (12/5) 7:58 PM EST (12/5)
Length of Visible Light 10h 15m
Length of Day
9h 12m
Waxing Crescent, 10% of the Moon is Illuminated
Dec 5
Waxing Crescent
Dec 9
First Quarter
Dec 17
Full
Dec 25
Last Quarter
Jan 1
New

Hourly Weather History & Observations

Time (EST) Temp. Windchill Dew Point Humidity Pressure Visibility Wind Dir Wind Speed Gust Speed Precip Events Conditions
12:54 AM 48.0 °F - 41.0 °F 77% 29.95 in 5.0 mi SE 10.4 mph - N/A   Haze
1:54 AM 48.9 °F - 42.1 °F 77% 29.93 in 5.0 mi SE 11.5 mph - N/A   Haze
2:54 AM 48.9 °F - 43.0 °F 80% 29.91 in 5.0 mi SE 8.1 mph - N/A   Haze
3:54 AM 50.0 °F - 44.1 °F 80% 29.88 in 5.0 mi SE 12.7 mph - N/A   Haze
4:54 AM 50.0 °F - 44.1 °F 80% 29.88 in 5.0 mi ESE 9.2 mph - N/A   Haze
5:54 AM 50.0 °F - 44.1 °F 80% 29.88 in 5.0 mi ESE 8.1 mph - N/A   Haze
6:54 AM 51.1 °F - 45.0 °F 80% 29.86 in 6.0 mi ESE 8.1 mph - N/A   Haze
7:54 AM 53.1 °F - 46.0 °F 77% 29.88 in 5.0 mi ESE 10.4 mph - N/A   Haze
8:54 AM 55.0 °F - 46.9 °F 74% 29.88 in 6.0 mi ESE 12.7 mph - N/A   Haze
9:54 AM 57.0 °F - 48.0 °F 72% 29.86 in 7.0 mi SE 8.1 mph 16.1 mph N/A   Clear
10:54 AM 60.1 °F - 50.0 °F 69% 29.86 in 9.0 mi SSE 12.7 mph 18.4 mph N/A   Scattered Clouds
11:54 AM 62.1 °F - 51.1 °F 67% 29.84 in 9.0 mi SSE 10.4 mph - N/A   Partly Cloudy
12:54 PM 63.0 °F - 52.0 °F 67% 29.80 in 9.0 mi SSE 11.5 mph - N/A   Scattered Clouds
1:54 PM 64.0 °F - 52.0 °F 65% 29.81 in 10.0 mi SSE 8.1 mph - N/A   Mostly Cloudy
2:54 PM 64.0 °F - 53.1 °F 67% 29.81 in 10.0 mi South 10.4 mph - N/A   Scattered Clouds
3:54 PM 62.1 °F - 53.1 °F 72% 29.82 in 10.0 mi SSE 8.1 mph - N/A   Clear
4:54 PM 61.0 °F - 53.1 °F 75% 29.84 in 10.0 mi Variable 3.5 mph - N/A   Overcast
5:09 PM 57.2 °F - 51.8 °F 82% 29.82 in 9.0 mi NNW 13.8 mph 18.4 mph N/A   Overcast
5:23 PM 55.4 °F - 48.2 °F 77% 29.84 in 9.0 mi NNW 13.8 mph - N/A   Overcast
5:46 PM 51.8 °F - 44.6 °F 76% 29.86 in 9.0 mi NNW 17.3 mph - N/A   Overcast
5:54 PM 51.1 °F - 43.0 °F 74% 29.90 in 9.0 mi NNW 17.3 mph - N/A   Overcast
6:22 PM 50.0 °F - 41.0 °F 71% 29.90 in 10.0 mi North 10.4 mph - N/A   Overcast
6:54 PM 48.0 °F - 39.0 °F 71% 29.96 in 10.0 mi NNW 10.4 mph - 0.00 in   Overcast
7:21 PM 48.2 °F - 35.6 °F 62% 29.95 in 10.0 mi NNW 5.8 mph - N/A   Overcast
7:54 PM 48.0 °F - 35.1 °F 61% 29.99 in 10.0 mi NNW 8.1 mph - N/A   Overcast
8:54 PM 46.9 °F - 35.1 °F 63% 29.99 in 10.0 mi NW 8.1 mph - N/A   Overcast
9:54 PM 46.0 °F 44.8 °F 35.1 °F 66% 30.00 in 10.0 mi WNW 3.5 mph - N/A   Overcast
10:54 PM 45.0 °F 40.6 °F 35.1 °F 68% 30.03 in 10.0 mi NW 8.1 mph - N/A   Overcast
11:04 PM 44.6 °F 41.4 °F 35.6 °F 71% 29.98 in 10.0 mi WNW 5.8 mph - N/A   Overcast
11:17 PM 44.6 °F 39.2 °F 35.6 °F 71% 29.99 in 10.0 mi NW 10.4 mph - 0.00 in Rain Light Rain
11:40 PM 42.8 °F - 35.6 °F 76% 30.01 in 10.0 mi Calm Calm - 0.00 in   Overcast
11:54 PM 43.0 °F 39.5 °F 35.1 °F 74% 30.04 in 7.0 mi NW 5.8 mph - 0.01 in Rain Light Rain